{"data":{"norad_id":60556,"epoch":"2026-05-25T04:33:25.424640Z","epoch_age_seconds":54530,"freshness":"FRESH","line1":"1 60556U 24149CS  26145.18987760  .00037559  00000+0  64951-3 0  9992","line2":"2 60556  97.3729 231.4824 0000710   3.8642 356.2615 15.50867760 98949","mean_motion":15.5086776,"eccentricity":7.1e-5,"inclination_deg":97.3729,"raan_deg":231.4824,"arg_perigee_deg":3.8642,"mean_anomaly_deg":356.2615,"bstar":0.00064951,"rev_number":9894,"period_min":92.851243487066,"perigee_km":413.70894901362,"apogee_km":414.67345961863,"semimajor_km":6792.3282043161,"source":"CELESTRAK","updated_at":"2026-05-25T13:38:02.153933Z"}}